• In Lithuania
  • List of Countries
  • For 7 days
  • Water Temperature
  • Satellite Maps
  • Weather Map
  • Weather Widgets
  • user-avatar
    Login

    Hourly Weather Pleven

    Today, 18 July, Wednesday

    Time Temperature Precipitation Wind Pressure Humidity
    00:00 +20°C° 0 mm 3 mps 740 mmHg 78%
    01:00 +20°C° 0 mm 3 mps 740 mmHg 78%
    02:00 +20°C° 0 mm 4 mps 739 mmHg 76%
    03:00 +20°C° 0 mm 4 mps 739 mmHg 77%
    04:00 +19°C° 0 mm 4 mps 739 mmHg 77%
    05:00 +19°C° 0 mm 4 mps 739 mmHg 78%
    06:00 +20°C° 0 mm 5 mps 739 mmHg 73%
    07:00 +22°C° 0 mm 5 mps 739 mmHg 68%
    08:00 +23°C° 0 mm 6 mps 739 mmHg 63%
    09:00 +24°C° 0 mm 7 mps 739 mmHg 59%
    10:00 +26°C° 0 mm 7 mps 739 mmHg 56%
    11:00 +27°C° 0 mm 8 mps 739 mmHg 52%
    12:00 +27°C° 0.1 mm 8 mps 739 mmHg 53%
    13:00 +27°C° 0.1 mm 8 mps 739 mmHg 54%
    14:00 +27°C° 0.1 mm 7 mps 739 mmHg 55%
    15:00 +27°C° 0.4 mm 7 mps 739 mmHg 57%
    16:00 +27°C° 0.4 mm 7 mps 738 mmHg 59%
    17:00 +26°C° 0.4 mm 7 mps 738 mmHg 62%
    18:00 +24°C° 0.2 mm 7 mps 738 mmHg 66%
    19:00 +23°C° 0.2 mm 6 mps 739 mmHg 70%
    20:00 +22°C° 0.2 mm 5 mps 739 mmHg 74%
    21:00 +21°C° 0 mm 5 mps 739 mmHg 74%
    22:00 +21°C° 0 mm 6 mps 739 mmHg 75%
    23:00 +20°C° 0 mm 6 mps 739 mmHg 75%

    Tomorrow, 19 July, Thursday

    Time Temperature Precipitation Wind Pressure Humidity
    00:00 +20°C° 0 mm 6 mps 739 mmHg 74%
    01:00 +20°C° 0 mm 6 mps 739 mmHg 73%
    02:00 +19°C° 0 mm 5 mps 739 mmHg 72%
    03:00 +19°C° 0 mm 5 mps 739 mmHg 73%
    04:00 +19°C° 0 mm 5 mps 739 mmHg 74%
    05:00 +19°C° 0 mm 5 mps 739 mmHg 75%
    06:00 +20°C° 0 mm 5 mps 739 mmHg 73%
    07:00 +21°C° 0 mm 5 mps 739 mmHg 71%
    08:00 +22°C° 0 mm 6 mps 739 mmHg 69%
    09:00 +23°C° 0 mm 6 mps 739 mmHg 67%
    10:00 +24°C° 0 mm 6 mps 739 mmHg 64%
    11:00 +26°C° 0 mm 5 mps 740 mmHg 61%
    12:00 +27°C° 0.4 mm 5 mps 740 mmHg 60%
    13:00 +28°C° 0.4 mm 6 mps 740 mmHg 59%
    14:00 +28°C° 0.4 mm 6 mps 740 mmHg 57%
    15:00 +28°C° 0.4 mm 6 mps 740 mmHg 59%
    16:00 +28°C° 0.4 mm 6 mps 740 mmHg 61%
    17:00 +28°C° 0.4 mm 6 mps 740 mmHg 62%
    18:00 +26°C° 0.1 mm 5 mps 740 mmHg 66%
    19:00 +25°C° 0.1 mm 5 mps 740 mmHg 71%
    20:00 +22°C° 0.1 mm 4 mps 740 mmHg 75%
    21:00 +22°C° 0 mm 4 mps 740 mmHg 76%
    22:00 +21°C° 0 mm 4 mps 741 mmHg 77%
    23:00 +20°C° 0 mm 4 mps 741 mmHg 79%

    Day after tomorrow, 20 July, Friday

    Time Temperature Precipitation Wind Pressure Humidity
    00:00 +20°C° 0 mm 3 mps 741 mmHg 79%
    01:00 +20°C° 0 mm 3 mps 741 mmHg 79%
    02:00 +20°C° 0 mm 3 mps 741 mmHg 80%
    03:00 +20°C° 0 mm 3 mps 741 mmHg 81%
    04:00 +20°C° 0 mm 3 mps 741 mmHg 82%
    05:00 +20°C° 0 mm 3 mps 741 mmHg 83%
    06:00 +21°C° 0 mm 4 mps 741 mmHg 79%
    07:00 +23°C° 0 mm 4 mps 741 mmHg 75%
    08:00 +25°C° 0 mm 5 mps 741 mmHg 70%
    09:00 +26°C° 0 mm 5 mps 741 mmHg 66%
    10:00 +28°C° 0 mm 5 mps 742 mmHg 62%
    11:00 +29°C° 0 mm 5 mps 742 mmHg 58%
    12:00 +29°C° 0.1 mm 5 mps 741 mmHg 56%
    13:00 +30°C° 0.1 mm 5 mps 741 mmHg 53%
    14:00 +32°C° 0.1 mm 5 mps 741 mmHg 50%
    15:00 +32°C° 0 mm 5 mps 741 mmHg 51%
    16:00 +32°C° 0 mm 5 mps 741 mmHg 51%
    17:00 +32°C° 0 mm 5 mps 741 mmHg 51%
    18:00 +29°C° 0 mm 4 mps 741 mmHg 57%
    19:00 +27°C° 0 mm 3 mps 741 mmHg 63%
    20:00 +25°C° 0 mm 2 mps 741 mmHg 68%
    21:00 +25°C° 0 mm 3 mps 741 mmHg 71%
    22:00 +24°C° 0 mm 3 mps 742 mmHg 73%
    23:00 +22°C° 0 mm 3 mps 742 mmHg 75%

    21 July, Saturday

    Time Temperature Precipitation Wind Pressure Humidity
    00:00 +22°C° 0.1 mm 3 mps 742 mmHg 77%
    01:00 +21°C° 0.1 mm 3 mps 742 mmHg 79%
    02:00 +21°C° 0.1 mm 3 mps 742 mmHg 81%
    03:00 +21°C° 0 mm 3 mps 742 mmHg 81%
    04:00 +20°C° 0 mm 3 mps 742 mmHg 81%
    05:00 +20°C° 0 mm 3 mps 742 mmHg 81%
    06:00 +22°C° 0 mm 3 mps 742 mmHg 76%
    07:00 +24°C° 0 mm 3 mps 742 mmHg 70%
    08:00 +26°C° 0 mm 4 mps 742 mmHg 65%
    09:00 +27°C° 0 mm 3 mps 742 mmHg 60%
    10:00 +29°C° 0 mm 3 mps 742 mmHg 55%
    11:00 +30°C° 0 mm 3 mps 742 mmHg 50%
    12:00 +31°C° 0 mm 3 mps 742 mmHg 47%
    13:00 +33°C° 0 mm 3 mps 741 mmHg 44%
    14:00 +34°C° 0 mm 3 mps 741 mmHg 41%
    15:00 +34°C° 0 mm 3 mps 741 mmHg 40%
    16:00 +34°C° 0 mm 3 mps 741 mmHg 40%
    17:00 +34°C° 0 mm 3 mps 741 mmHg 39%
    18:00 +31°C° 0 mm 2 mps 741 mmHg 45%
    19:00 +28°C° 0 mm 1 mps 741 mmHg 50%
    20:00 +26°C° 0 mm 1 mps 741 mmHg 55%
    21:00 +25°C° 0 mm 1 mps 741 mmHg 56%
    22:00 +25°C° 0 mm 1 mps 741 mmHg 57%
    23:00 +24°C° 0 mm 2 mps 741 mmHg 57%

    22 July, Sunday

    Time Temperature Precipitation Wind Pressure Humidity
    00:00 +23°C° 0 mm 2 mps 741 mmHg 58%
    01:00 +23°C° 0 mm 2 mps 741 mmHg 58%
    02:00 +21°C° 0 mm 2 mps 741 mmHg 58%
    03:00 +21°C° 0 mm 2 mps 741 mmHg 59%
    04:00 +21°C° 0 mm 2 mps 741 mmHg 59%
    05:00 +20°C° 0 mm 2 mps 741 mmHg 60%
    06:00 +23°C° 0 mm 2 mps 741 mmHg 56%
    07:00 +25°C° 0 mm 1 mps 741 mmHg 52%
    08:00 +27°C° 0 mm 1 mps 741 mmHg 48%
    09:00 +29°C° 0 mm 1 mps 741 mmHg 44%
    10:00 +31°C° 0 mm 2 mps 740 mmHg 40%
    11:00 +34°C° 0 mm 2 mps 740 mmHg 37%
    12:00 +34°C° 0 mm 2 mps 740 mmHg 35%
    13:00 +35°C° 0 mm 2 mps 739 mmHg 33%
    14:00 +36°C° 0 mm 2 mps 739 mmHg 31%
    15:00 +36°C° 0 mm 2 mps 739 mmHg 31%
    16:00 +36°C° 0 mm 2 mps 738 mmHg 31%
    17:00 +35°C° 0 mm 1 mps 738 mmHg 32%
    18:00 +34°C° 0 mm 2 mps 738 mmHg 38%
    19:00 +30°C° 0 mm 2 mps 738 mmHg 45%
    20:00 +28°C° 0 mm 2 mps 738 mmHg 51%
    21:00 +27°C° 0 mm 2 mps 738 mmHg 52%
    22:00 +27°C° 0 mm 2 mps 738 mmHg 53%
    23:00 +26°C° 0 mm 2 mps 738 mmHg 54%

    23 July, Monday

    Time Temperature Precipitation Wind Pressure Humidity
    00:00 +25°C° 0 mm 2 mps 738 mmHg 56%
    01:00 +25°C° 0 mm 2 mps 738 mmHg 57%
    02:00 +25°C° 0 mm 2 mps 737 mmHg 59%
    03:00 +24°C° 0.2 mm 2 mps 737 mmHg 66%
    04:00 +23°C° 0.2 mm 2 mps 737 mmHg 73%
    05:00 +21°C° 0.2 mm 2 mps 737 mmHg 80%
    06:00 +23°C° 0.1 mm 2 mps 737 mmHg 77%
    07:00 +24°C° 0.1 mm 2 mps 737 mmHg 73%
    08:00 +26°C° 0.1 mm 2 mps 737 mmHg 70%
    09:00 +27°C° 0.1 mm 2 mps 737 mmHg 66%
    10:00 +28°C° 0.1 mm 2 mps 737 mmHg 61%
    11:00 +29°C° 0.1 mm 2 mps 737 mmHg 57%
    12:00 +29°C° 1.1 mm 2 mps 737 mmHg 58%
    13:00 +30°C° 1.1 mm 2 mps 736 mmHg 60%
    14:00 +30°C° 1.1 mm 2 mps 736 mmHg 61%
    15:00 +29°C° 0.7 mm 2 mps 736 mmHg 61%
    16:00 +29°C° 0.7 mm 2 mps 736 mmHg 61%
    17:00 +29°C° 0.7 mm 2 mps 736 mmHg 62%
    18:00 +27°C° 1.3 mm 2 mps 737 mmHg 68%
    19:00 +26°C° 1.3 mm 2 mps 737 mmHg 74%
    20:00 +24°C° 1.3 mm 2 mps 737 mmHg 80%
    21:00 +24°C° 0.8 mm 2 mps 737 mmHg 81%
    22:00 +23°C° 0.8 mm 2 mps 738 mmHg 82%
    23:00 +23°C° 0.8 mm 2 mps 738 mmHg 83%
    Show more